Terminal Aerodrome Forecast
Issued by NWS

Home | Current Version | Previous Version | Text Only | Print | Product List | Glossary On
Versions: 1 2 3 4 5 6 7 8 9 10 11 12 13 14 15 16 17 18 19 20 21 22 23 24
000
FTUS46 KOTX 020520
TAFMWH
TAF
KMWH 020520Z 0206/0306 23005KT P6SM SCT250
     FM022100 23010G16KT P6SM FEW060 SCT100
     FM030000 27020G30KT P6SM FEW060 SCT100=

USA.gov is the U.S. government's official web portal to all federal, state and local government web resources and services.